This demonstration page uses our WeatherBlox Daily Observations layout. Learn more.

Left ArrowRight Arrow

Hourly Observations for April 17, 2019

Temp ( °F °C ) Dew Point ( °F °C ) Humidity (%) Winds ( mph kmh ) Pressure ( in mb ) Visibility ( mi km ) Precip ( " mm )
12:53 am 00:53 Clear 53 11.7 51 10.6 93 93 Calm 30.15 1021 10 16 0.00 0.00
1:53 am 01:53 Clear 51 10.6 50 10 96 96 Calm 30.14 1021 10 16 0.00 0.00
2:53 am 02:53 Clear 52 11.1 50 10 93 93 Calm 30.13 1020 10 16 0.00 0.00
3:53 am 03:53 Clear 50 10 49 9.4 96 96 Calm 30.12 1020 10 16 0.00 0.00
4:53 am 04:53 Clear 49 9.4 49 9.4 100 100 Calm 30.10 1019 10 16 0.00 0.00
5:53 am 05:53 Clear 48 8.9 48 8.9 100 100 Calm 30.11 1020 10 16 0.00 0.00
6:53 am 06:53 Clear 48 8.9 47 8.3 96 96 Calm 30.12 1020 10 16 0.00 0.00
7:53 am 07:53 Sunny 49 9.4 49 9.4 100 100 Calm 30.14 1021 10 16 0.00 0.00
8:53 am 08:53 Sunny 56 13.3 52 11.1 87 87 Calm 30.16 1021 10 16 0.00 0.00
9:53 am 09:53 Sunny 63 17.2 53 11.7 70 70 Calm 30.16 1021 10 16 0.00 0.00
10:53 am 10:53 Sunny 68 20 51 10.6 55 55 Calm 30.16 1021 10 16 0.00 0.00
11:53 am 11:53 Sunny 72 22.2 50 10 46 46 VRB 5 7 30.15 1021 10 16 0.00 0.00
12:53 pm 12:53 Sunny 74 23.3 49 9.4 41 41 undefined N/A 30.13 1020 10 16 0.00 0.00
1:53 pm 13:53 Sunny 77 25 48 8.9 36 36 WSW 8 13 30.11 1020 10 16 0.00 0.00
2:53 pm 14:53 Sunny 79 26.1 47 8.3 32 32 S 9 15 30.09 1019 10 16 0.00 0.00
3:53 pm 15:53 Sunny 79 26.1 50 10 36 36 S 6 9 30.04 1017 10 16 0.00 0.00
4:53 pm 16:53 Sunny 81 27.2 51 10.6 35 35 SSW 8 13 30.02 1017 10 16 0.00 0.00
5:53 pm 17:53 Sunny 80 26.7 50 10 35 35 S 8 13 30.01 1016 10 16 0.00 0.00
6:53 pm 18:53 Sunny 79 26.1 50 10 36 36 SSW 7 11 30.01 1016 10 16 0.00 0.00
7:53 pm 19:53 Sunny 77 25 54 12.2 45 45 S 6 9 30.01 1016 10 16 0.00 0.00
8:53 pm 20:53 Clear 74 23.3 53 11.7 48 48 SSE 6 9 30.00 1016 10 16 0.00 0.00
9:53 pm 21:53 Clear 72 22.2 56 13.3 57 57 SSE 7 11 30.03 1017 10 16 0.00 0.00
10:53 pm 22:53 Clear 68 20 56 13.3 65 65 SW 3 6 30.04 1017 10 16 0.00 0.00
11:53 pm 23:53 Clear 68 20 57 13.9 68 68 SSW 5 7 30.02 1017 10 16 0.00 0.00

Powered by AerisWeather